AE5HO Weather Reports


Display with metric or nautical units.
time (UTC)temp
F
wind
direction
speed
MPH
gust
MPH
rain 1hr
in
rain 24hr
in
rain mn
in
humidity
%
barometer
mb
20260902125451 81 180 0.0 1.0 0.00 0.00 0.00 76 1016.3
20260902124946 80 195 0.0 1.0 0.00 0.00 0.00 76 1016.5
20260902124443 80 194 0.0 1.0 0.00 0.00 0.00 77 1016.4
20260902123937 80 180 0.0 1.0 0.00 0.00 0.00 77 1016.4
20260902123434 80 187 0.0 2.0 0.00 0.00 0.00 77 1016.3
20260902122932 79 194 0.0 2.0 0.00 0.00 0.00 77 1016.2
20260902122428 79 188 0.0 1.0 0.00 0.00 0.00 78 1016.1
20260902121923 79 180 0.0 0.0 0.00 0.00 0.00 79 1016.2
20260902121418 79 180 0.0 1.0 0.00 0.00 0.00 79 1016.1
20260902120913 78 194 0.0 1.0 0.00 0.00 0.00 79 1016.1
20260902120410 79 180 0.0 0.0 0.00 0.00 0.00 80 1016.0
20260902115909 79 180 0.0 0.0 0.00 0.00 0.00 80 1015.9
20260902115405 79 180 0.0 0.0 0.00 0.00 0.00 79 1016.1
20260902114902 79 180 0.0 0.0 0.00 0.00 0.00 79 1015.9
20260902114357 79 203 0.0 0.0 0.00 0.00 0.00 78 1015.9
20260902113857 79 180 0.0 0.0 0.00 0.00 0.00 78 1016.1
20260902113353 79 180 0.0 0.0 0.00 0.00 0.00 78 1016.0
20260902112852 79 180 0.0 0.0 0.00 0.00 0.00 78 1016.0
20260902112348 80 180 0.0 0.0 0.00 0.00 0.00 77 1015.9
20260902111844 80 180 0.0 0.0 0.00 0.00 0.00 77 1016.0
20260902111340 80 180 0.0 0.0 0.00 0.00 0.00 76 1016.2
20260902110836 80 188 0.0 0.0 0.00 0.00 0.00 77 1016.1
20260902110331 80 188 0.0 0.0 0.00 0.00 0.00 76 1016.0
20260902105831 80 188 0.0 0.0 0.00 0.00 0.00 76 1016.1
20260902105326 80 195 0.0 1.0 0.00 0.00 0.00 76 1016.0
20260902104821 80 188 1.0 1.0 0.00 0.00 0.00 76 1016.0
20260902104318 80 180 0.0 2.0 0.00 0.00 0.00 76 1016.1
20260902103817 80 169 0.0 2.0 0.00 0.00 0.00 76 1016.0
20260902103312 80 279 0.0 0.0 0.00 0.00 0.00 76 1016.1
20260902102808 80 180 0.0 0.0 0.00 0.00 0.00 76 1016.0
20260902102307 80 188 0.0 0.0 0.00 0.00 0.00 75 1015.9
20260902101801 80 188 0.0 1.0 0.00 0.00 0.00 75 1016.0
20260902101255 80 180 0.0 0.0 0.00 0.00 0.00 75 1015.7
20260902100755 80 188 0.0 0.0 0.00 0.00 0.00 75 1015.9
20260902100254 80 188 0.0 0.0 0.00 0.00 0.00 75 1016.0
20260902095750 80 188 0.0 1.0 0.00 0.00 0.00 75 1015.9
20260902095250 80 188 1.0 1.0 0.00 0.00 0.00 75 1015.7
20260902094744 80 180 0.0 0.0 0.00 0.00 0.00 75 1015.8
20260902094240 81 180 0.0 0.0 0.00 0.00 0.00 74 1015.9
20260902093740 81 180 0.0 0.0 0.00 0.00 0.00 73 1015.9
20260902093235 81 180 0.0 0.0 0.00 0.00 0.00 73 1015.8
20260902092734 81 180 0.0 0.0 0.00 0.00 0.00 73 1015.9
20260902092230 81 180 0.0 0.0 0.00 0.00 0.00 73 1016.0
20260902091729 82 180 0.0 0.0 0.00 0.00 0.00 72 1015.9
20260902091226 82 180 0.0 0.0 0.00 0.00 0.00 71 1016.0
20260902090722 82 180 0.0 0.0 0.00 0.00 0.00 71 1016.0
20260902090221 82 180 0.0 0.0 0.00 0.00 0.00 70 1016.0
20260902085715 83 180 0.0 0.0 0.00 0.00 0.00 69 1015.9
20260902085211 83 240 0.0 1.0 0.00 0.00 0.00 69 1015.9
20260902084707 83 180 0.0 0.0 0.00 0.00 0.00 68 1016.2
20260902084203 83 165 0.0 0.0 0.00 0.00 0.00 68 1015.9
20260902083703 83 180 0.0 0.0 0.00 0.00 0.00 67 1015.8
20260902083202 84 180 0.0 0.0 0.00 0.00 0.00 67 1016.2
20260902082658 84 243 0.0 0.0 0.00 0.00 0.00 68 1016.1
20260902082154 84 124 0.0 0.0 0.00 0.00 0.00 66 1015.9
20260902081651 84 281 2.0 3.0 0.00 0.00 0.00 67 1016.1
20260902081145 84 180 0.0 2.0 0.00 0.00 0.00 68 1015.7
20260902080641 84 209 0.0 1.0 0.00 0.00 0.00 68 1015.9
20260902080137 84 270 0.0 1.0 0.00 0.00 0.00 68 1016.1
20260902075637 84 200 0.0 1.0 0.00 0.00 0.00 68 1016.0
20260902075133 84 262 0.0 1.0 0.00 0.00 0.00 68 1016.0
20260902074633 84 186 0.0 0.0 0.00 0.00 0.00 69 1015.9
20260902074129 84 186 0.0 0.0 0.00 0.00 0.00 68 1016.0
20260902073624 84 203 0.0 0.0 0.00 0.00 0.00 66 1016.1
20260902073120 85 257 0.0 1.0 0.00 0.00 0.00 67 1016.0
20260902072616 85 86 2.0 2.0 0.00 0.00 0.00 68 1015.9
20260902072112 85 255 0.0 1.0 0.00 0.00 0.00 68 1016.0
20260902071613 85 185 2.0 2.0 0.00 0.00 0.00 65 1016.1
20260902071109 85 294 0.0 1.0 0.00 0.00 0.00 66 1016.2
20260902070604 85 194 0.0 2.0 0.00 0.00 0.00 67 1016.2
20260902070059 86 229 0.0 2.0 0.00 0.00 0.00 65 1016.2
20260902065558 86 264 0.0 2.0 0.00 0.00 0.00 65 1015.8
20260902065054 86 246 0.0 2.0 0.00 0.00 0.00 66 1016.3
20260902064549 86 23 0.0 1.0 0.00 0.00 0.00 64 1016.1
20260902064045 86 90 0.0 2.0 0.00 0.00 0.00 64 1015.7
20260902063544 86 180 0.0 3.0 0.00 0.00 0.00 63 1015.8
20260902063040 86 173 0.0 2.0 0.00 0.00 0.00 63 1016.0
20260902062538 86 131 0.0 2.0 0.00 0.00 0.00 63 1015.9
20260902062034 86 180 1.0 3.0 0.00 0.00 0.00 67 1015.8
20260902061533 86 171 2.0 3.0 0.00 0.00 0.00 64 1015.8
20260902061029 87 270 0.0 2.0 0.00 0.00 0.00 63 1015.8
20260902060526 87 98 0.0 3.0 0.00 0.00 0.00 63 1015.7
20260902060022 87 180 0.0 3.0 0.00 0.00 0.00 61 1015.6
20260902055518 87 90 0.0 2.0 0.00 0.00 0.00 61 1015.5
20260902055013 87 75 2.0 3.0 0.00 0.00 0.00 62 1015.7
20260902054513 87 206 2.0 6.0 0.00 0.00 0.00 61 1015.5
20260902054009 87 151 2.0 3.0 0.00 0.00 0.00 61 1015.6
20260902053504 88 203 0.0 3.0 0.00 0.00 0.00 61 1015.2
20260902053003 88 192 0.0 2.0 0.00 0.00 0.00 60 1015.3
20260902052458 88 254 0.0 2.0 0.00 0.00 0.00 60 1015.5
20260902051954 88 171 5.0 5.0 0.00 0.00 0.00 60 1015.4
20260902051453 88 216 2.0 3.0 0.00 0.00 0.00 59 1015.3
20260902050952 88 194 0.0 1.0 0.00 0.00 0.00 59 1015.3
20260902050447 88 190 2.0 2.0 0.00 0.00 0.00 58 1015.3
20260902045942 88 192 1.0 3.0 0.00 0.00 0.00 58 1015.4
20260902045437 89 175 3.0 3.0 0.00 0.00 0.00 58 1015.7
20260902044934 89 202 2.0 3.0 0.00 0.00 0.00 58 1015.1
20260902044429 89 176 2.0 3.0 0.00 0.00 0.00 58 1015.3
20260902043924 88 294 1.0 2.0 0.00 0.00 0.00 60 1015.4
20260902043419 87 254 1.0 3.0 0.00 0.00 0.00 61 1015.3
20260902042914 87 203 0.0 0.0 0.00 0.00 0.00 62 1015.2
20260902042414 87 203 0.0 0.0 0.00 0.00 0.00 61 1014.9
20260902041909 87 203 0.0 0.0 0.00 0.00 0.00 61 1015.0
20260902041409 88 203 0.0 0.0 0.00 0.00 0.00 60 1015.0
20260902040908 88 203 0.0 0.0 0.00 0.00 0.00 60 1014.9
20260902040403 88 203 0.0 0.0 0.00 0.00 0.00 59 1015.2
20260902035903 88 203 0.0 0.0 0.00 0.00 0.00 59 1015.1
20260902035357 88 203 0.0 0.0 0.00 0.00 0.00 59 1014.9
20260902034856 88 203 0.0 0.0 0.00 0.00 0.00 59 1014.9
20260902034352 89 203 0.0 1.0 0.00 0.00 0.00 59 1015.2
20260902033850 89 187 0.0 0.0 0.00 0.00 0.00 58 1015.1
20260902033345 89 187 0.0 0.0 0.00 0.00 0.00 58 1015.0
20260902032844 89 188 0.0 0.0 0.00 0.00 0.00 57 1015.0
20260902032339 89 188 0.0 0.0 0.00 0.00 0.00 57 1015.0
20260902031838 89 180 0.0 0.0 0.00 0.00 0.00 57 1014.9
20260902031335 89 180 0.0 1.0 0.00 0.00 0.00 58 1014.8
20260902030830 89 188 0.0 1.0 0.00 0.00 0.00 58 1014.7
20260902030325 89 192 0.0 0.0 0.00 0.00 0.00 58 1014.8
20260902025824 89 192 0.0 0.0 0.00 0.00 0.00 58 1014.7
20260902025320 89 192 0.0 0.0 0.00 0.00 0.00 58 1014.6
20260902024814 90 192 0.0 0.0 0.00 0.00 0.00 57 1014.4
20260902024310 90 192 0.0 0.0 0.00 0.00 0.00 56 1014.5
20260902023805 90 192 0.0 0.0 0.00 0.00 0.00 55 1014.2
20260902023301 91 192 0.0 0.0 0.00 0.00 0.00 54 1014.3
20260902022759 91 192 0.0 0.0 0.00 0.00 0.00 53 1014.2
20260902022255 91 172 0.0 0.0 0.00 0.00 0.00 54 1014.0
20260902021751 91 172 0.0 0.0 0.00 0.00 0.00 54 1014.1
20260902021250 91 188 0.0 0.0 0.00 0.00 0.00 54 1014.1
20260902020747 91 188 0.0 0.0 0.00 0.00 0.00 55 1014.1
20260902020243 91 180 0.0 0.0 0.00 0.00 0.00 53 1014.1
20260902015738 92 180 0.0 0.0 0.00 0.00 0.00 52 1013.9
20260902015235 92 172 0.0 1.0 0.00 0.00 0.00 52 1013.7
20260902014730 92 194 0.0 0.0 0.00 0.00 0.00 51 1013.8
20260902014226 92 188 0.0 0.0 0.00 0.00 0.00 51 1013.8
20260902013724 92 180 0.0 1.0 0.00 0.00 0.00 51 1013.6
20260902013220 93 172 0.0 1.0 0.00 0.00 0.00 50 1013.6
20260902012715 93 160 0.0 0.0 0.00 0.00 0.00 50 1013.8
20260902012211 93 188 0.0 1.0 0.00 0.00 0.00 49 1013.7
20260902011707 93 173 0.0 0.0 0.00 0.00 0.00 49 1013.4
20260902011206 94 188 0.0 0.0 0.00 0.00 0.00 49 1013.5
20260902010706 94 180 0.0 1.0 0.00 0.00 0.00 48 1013.4
20260902010202 94 166 0.0 2.0 0.00 0.00 0.00 47 1013.5
20260902005659 94 175 0.0 2.0 0.00 0.00 0.00 48 1013.5
20260902005155 95 180 0.0 0.0 0.00 0.00 0.00 47 1013.4
20260902004655 95 180 0.0 1.0 0.00 0.00 0.00 47 1013.6
20260902004150 95 180 0.0 0.0 0.00 0.00 0.00 47 1013.4
20260902003646 96 180 0.0 0.0 0.00 0.00 0.00 45 1013.3
20260902003142 96 195 1.0 2.0 0.00 0.00 0.00 45 1013.4
20260902002637 97 270 0.0 2.0 0.00 0.00 0.00 46 1013.6
20260902002137 97 135 0.0 2.0 0.00 0.00 0.00 44 1013.6
20260902001632 97 286 0.0 1.0 0.00 0.00 0.00 44 1013.5
20260902001132 98 74 0.0 1.0 0.00 0.00 0.00 44 1013.6
20260902000627 98 81 1.0 1.0 0.00 0.00 0.00 44 1013.6
20260902000122 98 180 0.0 2.0 0.00 0.00 0.00 44 1013.6
20260901235622 98 203 0.0 2.0 0.00 0.00 0.00 44 1013.6
20260901235118 98 183 2.0 3.0 0.00 0.00 0.00 45 1013.7
20260901234616 98 192 0.0 2.0 0.00 0.00 0.00 43 1013.7
20260901234112 98 196 0.0 2.0 0.00 0.00 0.00 43 1013.8
20260901233607 98 195 0.0 2.0 0.00 0.00 0.00 43 1013.7
20260901233102 98 165 1.0 3.0 0.00 0.00 0.00 43 1013.7
20260901232557 98 190 2.0 2.0 0.00 0.00 0.00 43 1014.1
20260901232057 100 249 1.0 2.0 0.00 0.00 0.00 42 1014.0
20260901231554 100 184 2.0 3.0 0.00 0.00 0.00 41 1013.9
20260901231050 100 180 0.0 2.0 0.00 0.00 0.00 41 1013.7
20260901230545 100 0 0.0 2.0 0.00 0.00 0.00 41 1013.7
20260901230040 100 188 0.0 2.0 0.00 0.00 0.00 41 1013.7
20260901225535 100 185 2.0 2.0 0.00 0.00 0.00 41 1013.8
20260901225035 99 283 0.0 2.0 0.00 0.00 0.00 41 1013.9
20260901224531 99 106 1.0 2.0 0.00 0.00 0.00 41 1013.8
20260901224027 99 195 0.0 4.0 0.00 0.00 0.00 42 1013.9
20260901223528 99 90 0.0 0.0 0.00 0.00 0.00 42 1013.9
20260901223023 100 180 0.0 2.0 0.00 0.00 0.00 41 1013.8
20260901222519 99 264 2.0 2.0 0.00 0.00 0.00 43 1014.0
20260901222015 99 206 0.0 2.0 0.00 0.00 0.00 42 1013.8
20260901221510 99 175 2.0 3.0 0.00 0.00 0.00 42 1013.9
20260901221006 99 174 0.0 2.0 0.00 0.00 0.00 42 1013.7
20260901220505 100 188 0.0 1.0 0.00 0.00 0.00 41 1013.8
20260901220004 100 188 0.0 1.0 0.00 0.00 0.00 41 1014.2
20260901215502 99 180 2.0 3.0 0.00 0.00 0.00 41 1014.0
20260901215002 100 152 0.0 2.0 0.00 0.00 0.00 41 1014.0
20260901214501 100 90 0.0 1.0 0.00 0.00 0.00 42 1014.0
20260901213955 100 195 1.0 5.0 0.00 0.00 0.00 41 1014.1
20260901213450 100 180 0.0 2.0 0.00 0.00 0.00 41 1014.1
20260901212949 99 180 0.0 2.0 0.00 0.00 0.00 42 1014.2
20260901212445 100 180 1.0 3.0 0.00 0.00 0.00 41 1014.2
20260901211941 101 270 0.0 2.0 0.00 0.00 0.00 42 1014.1
20260901211437 100 187 0.0 3.0 0.00 0.00 0.00 40 1014.4
20260901210933 100 254 0.0 4.0 0.00 0.00 0.00 40 1014.4
20260901210428 100 188 0.0 2.0 0.00 0.00 0.00 41 1014.3
20260901205925 100 191 0.0 3.0 0.00 0.00 0.00 41 1014.4
20260901205425 100 180 0.0 3.0 0.00 0.00 0.00 42 1014.5
20260901204919 100 174 0.0 1.0 0.00 0.00 0.00 41 1014.6
20260901204416 100 285 0.0 1.0 0.00 0.00 0.00 41 1014.6
20260901203915 100 90 0.0 2.0 0.00 0.00 0.00 41 1014.6
20260901203410 99 180 0.0 0.0 0.00 0.00 0.00 43 1014.7
20260901202905 99 176 2.0 2.0 0.00 0.00 0.00 41 1014.7
20260901202400 99 185 0.0 2.0 0.00 0.00 0.00 43 1015.0
20260901201857 99 160 1.0 2.0 0.00 0.00 0.00 42 1015.0
20260901201356 99 325 0.0 3.0 0.00 0.00 0.00 43 1014.9
20260901200855 99 259 4.0 4.0 0.00 0.00 0.00 43 1015.0
20260901200351 99 270 0.0 2.0 0.00 0.00 0.00 45 1015.0
20260901195850 98 198 0.0 2.0 0.00 0.00 0.00 45 1015.3
20260901195343 98 180 0.0 2.0 0.00 0.00 0.00 45 1015.3
20260901194839 98 190 0.0 2.0 0.00 0.00 0.00 45 1015.4
20260901194338 98 197 3.0 3.0 0.00 0.00 0.00 45 1015.2
20260901193835 98 180 0.0 3.0 0.00 0.00 0.00 44 1015.6
20260901193333 98 173 0.0 3.0 0.00 0.00 0.00 46 1015.6
20260901192828 97 270 0.0 4.0 0.00 0.00 0.00 47 1015.6
20260901192324 98 81 1.0 2.0 0.00 0.00 0.00 47 1015.7
20260901191820 97 69 0.0 2.0 0.00 0.00 0.00 47 1015.8
20260901191315 96 203 1.0 2.0 0.00 0.00 0.00 49 1015.7
20260901190812 97 165 0.0 4.0 0.00 0.00 0.00 47 1015.8
20260901190311 98 172 0.0 3.0 0.00 0.00 0.00 47 1016.0
20260901185809 97 160 1.0 3.0 0.00 0.00 0.00 48 1015.8
20260901185309 97 234 0.0 2.0 0.00 0.00 0.00 48 1016.1
20260901184804 97 85 2.0 2.0 0.00 0.00 0.00 48 1016.2
20260901184259 97 265 2.0 4.0 0.00 0.00 0.00 47 1016.1
20260901183755 96 345 0.0 2.0 0.00 0.00 0.00 49 1016.4
20260901183254 96 296 3.0 3.0 0.00 0.00 0.00 48 1016.6
20260901182751 96 81 0.0 3.0 0.00 0.00 0.00 48 1016.4
20260901182249 96 287 0.0 3.0 0.00 0.00 0.00 49 1016.6
20260901181744 96 196 0.0 4.0 0.00 0.00 0.00 51 1016.7
20260901181239 96 74 0.0 2.0 0.00 0.00 0.00 51 1016.9
20260901180739 96 198 0.0 2.0 0.00 0.00 0.00 51 1016.7
20260901180238 95 280 2.0 2.0 0.00 0.00 0.00 50 1016.7
20260901175737 95 173 0.0 2.0 0.00 0.00 0.00 51 1016.9
20260901175232 95 166 0.0 2.0 0.00 0.00 0.00 50 1016.8
20260901174727 96 90 0.0 2.0 0.00 0.00 0.00 49 1017.2
20260901174223 97 180 0.0 4.0 0.00 0.00 0.00 48 1017.2
20260901173719 96 77 1.0 3.0 0.00 0.00 0.00 49 1017.2
20260901173213 96 200 1.0 2.0 0.00 0.00 0.00 49 1017.2
20260901172710 96 281 2.0 3.0 0.00 0.00 0.00 50 1017.2
20260901172208 95 270 2.0 3.0 0.00 0.00 0.00 50 1017.4
20260901171706 96 198 2.0 2.0 0.00 0.00 0.00 50 1017.6
20260901171201 96 195 0.0 2.0 0.00 0.00 0.00 50 1017.5
20260901170700 94 264 0.0 3.0 0.00 0.00 0.00 51 1017.8
20260901170155 94 261 2.0 2.0 0.00 0.00 0.00 52 1017.9
20260901165653 94 111 0.0 3.0 0.00 0.00 0.00 52 1017.9
20260901165149 94 254 3.0 7.0 0.00 0.00 0.00 53 1017.8
20260901164645 94 180 0.0 2.0 0.00 0.00 0.00 54 1018.0
20260901164140 93 270 1.0 5.0 0.00 0.00 0.00 53 1017.9
20260901163636 95 257 0.0 3.0 0.00 0.00 0.00 52 1018.2
20260901163134 94 82 1.0 2.0 0.00 0.00 0.00 53 1018.0
20260901162630 93 195 0.0 2.0 0.00 0.00 0.00 54 1017.8
20260901162129 93 270 0.0 3.0 0.00 0.00 0.00 54 1017.8
20260901161628 94 270 0.0 2.0 0.00 0.00 0.00 52 1017.6
20260901161128 93 257 1.0 3.0 0.00 0.00 0.00 54 1018.0
20260901160624 93 270 0.0 3.0 0.00 0.00 0.00 54 1018.1
20260901160119 92 233 3.0 4.0 0.00 0.00 0.00 57 1018.3
20260901155618 92 262 0.0 2.0 0.00 0.00 0.00 57 1018.1
20260901155114 93 249 1.0 2.0 0.00 0.00 0.00 57 1017.9
20260901154614 92 203 0.0 2.0 0.00 0.00 0.00 58 1017.8
20260901154109 93 254 1.0 3.0 0.00 0.00 0.00 56 1018.1
20260901153604 93 81 1.0 2.0 0.00 0.00 0.00 57 1017.9
20260901153103 91 276 0.0 2.0 0.00 0.00 0.00 60 1018.1
20260901152558 92 106 1.0 1.0 0.00 0.00 0.00 59 1017.9
20260901152057 90 270 0.0 2.0 0.00 0.00 0.00 61 1017.9
20260901151553 91 276 2.0 2.0 0.00 0.00 0.00 59 1017.7
20260901151052 90 96 0.0 2.0 0.00 0.00 0.00 60 1017.8
20260901150550 90 270 0.0 1.0 0.00 0.00 0.00 61 1018.2
20260901150049 90 180 0.0 2.0 0.00 0.00 0.00 61 1018.0
20260901145543 88 99 0.0 1.0 0.00 0.00 0.00 63 1017.8
20260901145042 88 249 0.0 1.0 0.00 0.00 0.00 65 1017.9
20260901144538 88 270 0.0 1.0 0.00 0.00 0.00 65 1018.0
20260901144033 87 336 0.0 2.0 0.00 0.00 0.00 65 1018.2
20260901143528 86 294 0.0 1.0 0.00 0.00 0.00 66 1017.9
20260901143026 86 337 2.0 2.0 0.00 0.00 0.00 67 1018.1
20260901142525 86 270 1.0 2.0 0.00 0.00 0.00 68 1018.0
20260901142020 86 99 0.0 1.0 0.00 0.00 0.00 68 1018.1
20260901141520 86 180 0.0 2.0 0.00 0.00 0.00 68 1017.9
20260901141015 85 195 0.0 1.0 0.00 0.00 0.00 68 1018.4
20260901140514 85 66 0.0 2.0 0.00 0.00 0.00 69 1018.3
20260901140009 85 270 0.0 1.0 0.00 0.00 0.00 69 1018.2
20260901135508 84 261 0.0 2.0 0.00 0.00 0.00 70 1018.1
20260901135004 84 180 0.0 2.0 0.00 0.00 0.00 70 1018.2
20260901134500 84 97 0.0 0.0 0.00 0.00 0.00 72 1017.9
20260901134000 84 0 0.0 1.0 0.00 0.00 0.00 71 1018.0
20260901133458 83 90 0.0 1.0 0.00 0.00 0.00 72 1017.9
20260901132957 83 165 0.0 1.0 0.00 0.00 0.00 74 1018.0
20260901132457 82 188 0.0 2.0 0.00 0.00 0.00 75 1018.3
20260901131957 81 180 0.0 0.0 0.00 0.00 0.00 77 1017.7
20260901131456 81 180 0.0 0.0 0.00 0.00 0.00 79 1017.9
20260901130952 80 180 0.0 0.0 0.00 0.00 0.00 79 1017.6
20260901130447 80 198 1.0 1.0 0.00 0.00 0.00 80 1017.9
20260901125944 80 180 0.0 0.0 0.00 0.00 0.00 79 1017.5